Home   Weather   Saskatoon   Past weeks
Flag for Canada

Past Weather in Saskatoon, Saskatchewan, Canada — Yesterday and Last 2 Weeks

Now
52 °F

Passing clouds.


Feels Like: 52 °F
Forecast: 60 / 52 °F
Wind: 2 mph from West

Location: Saskatoon Weather Station

Current Time: Jul 19, 2019 at 2:23:19 am

Latest Report: Jul 19, 2019 at 12:00 am


Visibility: 15 mi

Pressure: 29.58 "Hg

Humidity: 94%

Dew Point: 50 °F

Location of SaskatoonLocation

Past Weather in Saskatoon — Graph

°F

Saskatoon Temperature Yesterday

Maximum temperature yesterday: 77 °F (at 3:00 pm)
Minimum temperature yesterday: 54 °F (at 10:00 pm)
Average temperature yesterday: 63 °F

High & Low Weather Summary for the Past Weeks

 TemperatureHumidityPressure
High82 °F (Jul 7, 4:00 pm)100% (Jul 4, 2:00 am)30.36 "Hg (Jul 4, 2:00 am)
Low43 °F (Jul 4, 5:00 am)33% (Jul 4, 4:00 pm)29.44 "Hg (Jul 18, 5:00 pm)
Average65 °F73%29.92 "Hg
* Reported Jul 4 12:00 am — Jul 19 12:00 am, Saskatoon. Weather by CustomWeather, © 2019

Note: Actual official high and low records may vary slightly from our data, if they occured in-between our weather recording intervals... More about our weather records

Advertising

Saskatoon Weather History for the Previous 24 Hours

Scroll right to see more
 ConditionsComfort  
Time TempWeatherWind HumidityBarometerVisibility
12:00 am
Fri, Jul 19
52 °FPassing clouds.2 mph94%29.58 "Hg15 mi
11:00 pm
Thu, Jul 18
54 °FPassing clouds.9 mph94%29.59 "Hg15 mi
10:00 pm54 °FPassing clouds.9 mph94%29.60 "Hg15 mi
9:00 pm55 °FBroken clouds.9 mph94%29.57 "Hg15 mi
8:00 pm57 °FPartly sunny.No wind77%29.54 "Hg15 mi
7:23 pm55 °FCloudy.12 mph88%29.54 "Hg15 mi
7:00 pm55 °FSprinkles. Cloudy.20 mph88%29.55 "Hg10 mi
6:00 pm55 °FStrong thunderstorms. More clouds than sun.25 mph88%29.58 "Hg3 mi
5:44 pm59 °FSprinkles. Broken clouds.26 mph72%29.56 "Hg10 mi
5:32 pm66 °FScattered showers. Partly sunny.39 mph56%29.50 "Hg8 mi
5:00 pm75 °FPartly sunny.10 mph57%29.44 "Hg15 mi
4:00 pm77 °FScattered showers. Broken clouds.9 mph54%29.45 "Hg15 mi
3:00 pm77 °FScattered clouds.10 mph51%29.46 "Hg15 mi
2:00 pm75 °FScattered clouds.3 mph54%29.46 "Hg15 mi
1:00 pm73 °FBroken clouds.10 mph50%29.48 "Hg15 mi
12:00 pm73 °FPassing clouds.7 mph57%29.49 "Hg15 mi
11:00 am72 °FPassing clouds.8 mph57%29.49 "Hg15 mi
10:00 am68 °FScattered clouds.7 mph64%29.50 "Hg15 mi
9:00 am64 °FScattered clouds.6 mph73%29.51 "Hg15 mi
8:00 am63 °FPartly sunny.6 mph83%29.52 "Hg15 mi
7:00 am61 °FScattered showers. Partly sunny.7 mph88%29.52 "Hg15 mi
5:08 am61 °FMostly cloudy.5 mph88%29.54 "Hg15 mi
5:01 am59 °FLight rain. Passing clouds.3 mph94%29.54 "Hg15 mi
4:00 am59 °FPassing clouds.No wind94%29.54 "Hg15 mi
3:00 am61 °FMostly cloudy.5 mph88%29.57 "Hg15 mi
2:00 am61 °FMostly cloudy.2 mph88%29.57 "Hg15 mi
Weather by CustomWeather, © 2019

See weather overview